STARLINK-35662

Last updated on Wed Dec 10 2025 00:02:05 GMT+0000 (Coordinated Universal Time)

1 66384U 25257E 25343.13067944 .00084344 00000+0 20943-2 0 9991 2 66384 53.1603 281.5542 0001027 91.0689 269.0434 15.39635056 5812
UTC large
Height (km)
Speed (km/s)
/
Latitude / Longitude
Inclination (degrees)
Orbital Period (minutes)
Azimuth
Elevation
Range (km)
Doppler Factor

Next 0 passes for location: London (51.5072 / 0.1276)

Sorry there are no passes over London.